METEOR 2-11 DEB, 40317

Orbit data source: Space-Track

METEOR 2-11 DEB, 40317 is space debris in LEO originally from a launch on Thu, 05 Jul 1984 UTC launched from the Plesetsk Missile And Space Complex (PKMTR). Debris objects in space refer to the collection of defunct objects orbiting the Earth. Examples of debris include non-operational satellites, rocket bodies, and fragments generated from explosions, collisions, or faulty payload assembly.

Loading next visibility...
METEOR 2-11 DEB details
Identifier
40317, 1984-072C
Orbit
LEO
Last TLE update2 days ago
Origin
Flag of CISVVKO (CIS)
ManufacturerUnknown
MissionSpacecraft
Bus & MotorUnknown
MassUnknown
Launch date (UTC)
1984-07-05 (40 years ago)
Launch vehicleUnknown
Launch site
Plesetsk Missile And Space Complex (PKMTR)
Object type
Payload
Rocket body
Debris
Shape & HBRUnknown
Radar Cross SectionSmall (<0.1 m²)

Expand to show TLE details & history

TLE from 2 days ago
0 METEOR 2-11 DEB
1 40317U 84072C   24360.21373882  .00005859  00000-0  42237-2 0  9992
2 40317  82.5197  85.8080 0015389 161.4879 198.6851 13.96523558510720
Epoch: 2024-12-25T05:07Z
Definitive object data (Epoch: 2024-12-25T05:07:47.034Z)
Latitude-0.00002°
Longitude-85.34868°
Altitude919.399 km
Speed7.387 km/s
True Right ascension05h 43m 13s
True Declination0° 00' 00"
Sunlit
Object was in full shadow at TLE epoch
Visualization TLE readout
Latitude72.26234°
Longitude69.30901°
Altitude911.167 km
Speed7.406 km/s
Apparent Right ascension05h 58m 17s
Apparent Declination45° 10' 43"
Sunlit
Object is in daylight
Visualization observer readout
Local Sidereal Time17:07:11
Azimuth351.01° N
Elevation-4.136°
Doppler factor1
Orbital elements
Apogee altitude914.199 km
Perigee altitude891.789 km
Semi-major axis7,281.131 km
Eccentricity0.0015389
Inclination82.5197°
RAAN85.808°
Arg. of periapsis161.4879°
True anomaly198.62871°
Mean anomaly198.6851°
Eccentric anomaly198.65689°
Mean motion3.49337 °/min
BSTAR0.0042237
Orbital period103.05 mins
Loading maneuver chart data...
Loading historical data...
Loading historical data...
Loading historical data...
Loading historical data...
Loading historical data...
Loading historical data...
Loading historical data...

METEOR 2-11 DEB Visibility forecast

Observer location: undefined°, undefined

Span
Click to sort rows by Start time (UTC) header in descending order
Start Az.
Max El. time (UTC)
Max El. Az.
Max El.
End time (UTC)
End Az.
11 mins2024-12-26 17:48:48.491Z350.943° N2024-12-26 17:54:48.491Z200.381° SSW44.284°2024-12-26 17:59:48.491Z176.801° S
7 mins2024-12-27 05:24:48.491Z126.1° SE2024-12-27 05:27:48.491Z89.218° E21.41°2024-12-27 05:31:48.491Z40.714° NE
9 mins2024-12-27 07:07:48.491Z217.606° SW2024-12-27 07:11:48.491Z288.259° WNW35.839°2024-12-27 07:16:48.491Z353.946° N
5 mins2024-12-27 16:12:48.491Z49.563° ENE2024-12-27 16:14:48.491Z73.572° E15.568°2024-12-27 16:17:48.491Z105.199° ESE
|